• MPC Preparation (Info)

  • MPEC 2019-V129 : 2019 VU4

    The following Minor Planet Electronic Circular may be linked-to from your own Web pages, but must not otherwise be redistributed electronically.

    A form allowing access to any MPEC is at the bottom of this page.


    Read MPEC 2019-V128 Read MPEC 2019-V130


    M.P.E.C. 2019-V129                             Issued 2019 November 8, 15:52 UT
    
         The Minor Planet Electronic Circulars contain information on unusual
             minor planets and routine data on comets.  They are published
        on behalf of Division F of the International Astronomical Union by the
              Minor Planet Center, Smithsonian Astrophysical Observatory,
                              Cambridge, MA 02138, U.S.A.
    
                 Prepared using the Tamkin Foundation Computer Network
    
                                  MPC@CFA.HARVARD.EDU
                URL https://www.minorplanetcenter.net/    ISSN 1523-6714
    
                                    2019 VU4                                 
    
    
    Observations:
         K19V04U* C2019 11 04.36947 07 36 37.65 +30 41 39.6          22.4 GVEV129G96
         K19V04U  C2019 11 04.37421 07 36 37.90 +30 41 49.7          22.3 GVEV129G96
         K19V04U  C2019 11 04.37895 07 36 38.02 +30 42 00.4          21.7 GVEV129G96
         K19V04U  C2019 11 04.38368 07 36 38.29 +30 42 11.7          22.0 GVEV129G96
         K19V04U  C2019 11 04.48821 07 36 42.66 +30 46 00.8          22.0 GVEV129G96
         K19V04U  C2019 11 04.49242 07 36 42.81 +30 46 09.5          22.2 GVEV129G96
         K19V04U  C2019 11 04.49663 07 36 42.99 +30 46 18.8          21.8 GVEV129G96
         K19V04U  C2019 11 04.50084 07 36 43.17 +30 46 28.6          22.4 GVEV129G96
         K19V04U  C2019 11 04.51688807 36 43.80 +30 47 02.8          21.6 GVEV129H01
         K19V04U  C2019 11 04.52097307 36 43.98 +30 47 11.9          21.6 GVEV129H01
         K19V04U  C2019 11 04.52391607 36 44.10 +30 47 18.1          21.3 GVEV129H01
         K19V04U  C2019 11 04.52744707 36 44.24 +30 47 25.9          22.6 GVEV129H01
         K19V04U  C2019 11 04.55887607 36 46.131+30 48 36.28         21.37wUEV129F51
         K19V04U  C2019 11 04.57836007 36 46.942+30 49 19.46         21.64wUEV129F51
         K19V04U  C2019 11 04.58824807 36 47.360+30 49 41.13         22.06wUEV129F51
         K19V04U  C2019 11 05.50760 07 37 27.88 +31 23 20.7          21.8 GVEV129G96
         K19V04U  C2019 11 05.50967 07 37 27.93 +31 23 25.6          21.1 GVEV129G96
         K19V04U  C2019 11 05.51538 07 37 28.19 +31 23 37.3          21.9 GVEV129G96
         K19V04U  C2019 11 08.38394 07 39 20.12 +33 10 55.0          22.0 GVEV129G96
         K19V04U  C2019 11 08.38539 07 39 20.20 +33 10 58.5          21.7 GVEV129G96
         K19V04U  C2019 11 08.38937 07 39 20.31 +33 11 08.3          22.6 GVEV129G96
         K19V04U  C2019 11 08.40913 07 39 20.91 +33 11 54.4                VEV129G96
    
    Observer details:
    F51 Pan-STARRS 1, Haleakala.  Observers J. Bulger, T. Lowe, A. Schultz, M. 
       Willman.  Measurers K. Chambers, S. Chastel, T. de Boer, L. Denneau, J. 
       Fairlamb, H. Flewelling, M. Huber, C.-C. Lin, E. Magnier, Y. Ramanjooloo, R. 
       Wainscoat, R. Weryk.  1.8-m Ritchey-Chretien + CCD.
    G96 Mt. Lemmon Survey.  Observers E. J. Christensen, T. A. Pruyne.  Measurers 
       E. J. Christensen, G. A. Farneth, D. C. Fuls, A. R. Gibbs, A. D. Grauer, H. 
       Groeller, R. A. Kowalski, S. M. Larson, G. J. Leonard, T. A. Pruyne, D. 
       Rankin, R. L. Seaman, F. C. Shelly, K. W. Wierzchos.  1.5-m reflector + 10K 
       CCD.
    H01 Magdalena Ridge Observatory, Socorro.  Observers W. H. Ryan, E. V. Ryan.  
        Measurer W. H. Ryan.  2.4-m f/8.9 Ritchey-Chretien + CCD.
    
    Orbital elements:
    2019 VU4                                                 Earth MOID = 0.4183 AU
    Epoch 2019 Apr. 27.0 TT = JDT 2458600.5                 Bell
    M 328.15398              (2000.0)            P               Q
    n   0.33845081     Peri.  299.41035     +0.85278823     -0.01377630
    a   2.0392588      Node    65.99789     +0.34282556     +0.76889016
    e   0.3841637      Incl.   34.85432     -0.39398333     +0.63923246
    P   2.91           H   19.8           G   0.15           U   8
    Residuals in seconds of arc
    191104 G96  0.4+  0.2-    191104 H01  0.2-  0.1-    191105 G96  0.3-  0.4+
    191104 G96  0.9+  0.5-    191104 H01  0.0   0.1+    191105 G96  0.2+  0.5-
    191104 G96  0.2-  0.2-    191104 H01  0.1-  0.1-    191108 G96  0.2-  0.6-
    191104 G96  0.7+  0.6+    191104 H01  0.2-  0.0     191108 G96  0.2+  0.5-
    191104 G96  0.0   0.3+    191104 F51  0.1-  0.2-    191108 G96  0.1+  0.2+
    191104 G96  0.3-  0.2-    191104 F51  0.1-  0.1+    191108 G96  0.1-  0.9+
    191104 G96  0.2-  0.1-    191104 F51  0.1+  0.1+
    191104 G96  0.2-  0.5+    191105 G96  0.1+  0.1+
    
    Ephemeris:
    2019 VU4                 a,e,i = 2.04, 0.38, 35                  q = 1.2558
    Date    TT    R. A. (2000) Decl.     Delta      r    Elong.  Phase     V
    2019 10 09    07 04 04.5 +17 05 59   1.0080  1.4164    89.8    44.9    22.3
    ...
    2019 10 24    07 25 15.1 +24 15 45   0.9280  1.4805   100.6    41.3    22.1
    ...
    2019 11 01    07 33 46.7 +28 41 32   0.8893  1.5169   107.3    38.7    22.0
    ...
    2019 11 07    07 38 28.9 +32 18 44   0.8641  1.5450   112.6    36.3    21.9
    2019 11 08    07 39 06.2 +32 56 22   0.8603  1.5498   113.5    35.9    21.9
    2019 11 09    07 39 40.4 +33 34 23   0.8566  1.5545   114.4    35.5    21.9
    ...
    2019 11 15    07 41 56.5 +37 29 48   0.8376  1.5834   119.9    32.8    21.8
    ...
    2019 11 23    07 41 20.3 +42 57 35   0.8216  1.6225   127.2    29.0    21.7
    ...
    2019 12 08    07 25 29.2 +52 58 14   0.8286  1.6971   138.5    22.6    21.6
    
    A. U. Tomatic                (C) Copyright 2019 MPC           M.P.E.C. 2019-V129
    


    Read MPEC 2019-V128 Read MPEC 2019-V130


    MPEC number:

    Enter an MPEC number in one of the following forms:

    • 1997-B01 (the full form)
    • J97B01 (the packed version of the full form)
    • B01 (the abbreviated form)